Location: Monrovia
(34.7865°N, 86.7139°W)
Time: 01:24:56
(UTC+00:00)

Daily predictions for brighter satellites

Satellite Brightness Start Highest point End
(mag) Time Altitude Azimuth Time Altitude Azimuth Time Altitude Azimuth
COSMOS 2428 2.7 01:23:50 10° SSW 01:29:27 72° ESE 01:35:07 10° NNE
Cosmos 1953 Rocket 4.3 01:26:20 10° SSE 01:30:08 31° E 01:33:58 10° NNE
Cosmos 1328 4.0 01:27:05 10° S 01:30:55 51° E 01:34:46 10° NNE
OAO 3 Copernicus 4.3 01:26:17 10° WSW 01:31:23 83° S 01:36:28 10° E
ATLAS CENTAUR R/B 3.7 01:30:39 10° W 01:32:32 17° SW 01:35:25 10° S
Cosmos 1709 Rocket 4.4 01:27:33 10° SSE 01:33:29 45° E 01:39:29 10° NNE
Resurs 01 Rocket 3.1 01:31:54 10° ESE 01:35:11 21° ENE 01:38:28 10° NNE
Nadezhda 1 Rocket 4.1 01:31:04 10° N 01:37:27 70° E 01:43:43 10° SSE
Cosmos 1825 Rocket 3.6 01:35:50 10° S 01:40:14 69° E 01:44:41 10° NNE
SJ-6B 2.9 01:37:17 10° SSE 01:41:18 80° ENE 01:45:24 10° N
Hubble Space Telescope 1.6 01:40:59 10° WSW 01:44:43 34° S 01:48:07 12° ESE
Milstar 3 4.4 01:36:20 10° W 01:45:39 60° S 02:03:26 11° ESE
H-2A R/B 3.2 01:40:28 10° S 01:45:41 47° W 01:50:54 10° NNW
Cosmos 1844 Rocket 2.8 01:40:53 10° NNW 01:46:27 77° WSW 01:52:00 10° SSE
IUS-9 SRM-1 3.8 01:45:54 10° SW 01:47:01 11° SW 01:47:54 10° SSW
BREEZE-M DEB (TANK) 3.6 01:35:24 10° SW 01:47:21 82° SE 01:50:29 10° NE
ATLAS 2AS CENTAUR R/B 4.4 01:42:49 10° N 01:48:15 21° NE 01:53:22 10° E
SEDSat Delta rocket 4.2 01:44:40 10° SW 01:49:31 37° SSE 01:55:00 10° E
Resurs 1-3 4.0 01:45:32 10° SSE 01:49:43 46° ENE 01:53:55 10° N
Cosmos-2242 3.2 01:47:31 10° N 01:51:50 57° E 01:56:08 10° SSE
Cosmos 2333 Rocket 3.0 01:48:17 10° SW 01:53:51 57° WNW 01:59:29 10° NNE
USA 186 3.4 01:52:30 10° SSW 01:55:28 33° W 01:58:19 10° NNW
Cosmos 1538 Rocket 4.2 01:50:45 10° SSW 01:56:06 80° WNW 02:01:27 10° NNE
OAO 2 Rocket 3.6 01:51:56 10° W 01:57:05 62° SSW 02:01:23 15° ESE
NOSS 0 Rocket 3.9 01:51:14 10° S 01:57:16 62° ESE 02:03:21 10° NNE
SPOT 3 Rocket 3.7 01:52:10 10° SSE 01:57:17 61° ENE 02:02:26 10° N
Cosmos 1455 2.8 01:54:33 10° NNW 01:58:22 59° W 02:02:10 10° S
DMSP B5D2-2 4.5 01:56:32 10° N 02:01:42 68° WNW 02:06:51 10° SSW
Cosmos 2084 3.5 01:58:40 10° NNW 02:03:08 75° ENE 02:06:28 17° SE
Cosmos 2278 Rocket 3.4 01:58:38 10° N 02:03:26 28° ENE 02:07:03 15° ESE
SL-16 R/B 3.5 02:09:56 17° ESE 02:11:22 19° E 02:15:11 10° ENE
Alouette 2 Rocket 4.4 02:08:49 10° N 02:13:44 81° E 02:21:29 10° S
Spot 2 Rocket 4.4 02:19:24 21° ESE 02:22:01 33° ENE 02:26:33 10° N
Meteor 1-27 4.5 02:16:39 10° N 02:22:21 54° E 02:26:09 21° SSE
Cosmos 2112 Rocket 4.3 02:19:25 10° S 02:24:31 48° ESE 02:29:40 10° NNE
BREEZE M DEB (TANK) 3.2 02:27:31 10° SW 02:30:54 85° SE 02:42:23 10° NE
BREEZE M DEB (TANK) 4.0 02:30:47 10° NNW 02:32:14 15° NNE 02:32:49 14° NE
Cosmos 2058 3.7 02:33:45 30° ESE 02:34:21 31° E 02:38:02 10° NNE
BREEZE-M R/B 4.4 02:23:27 10° NW 02:35:37 82° NE 02:39:01 27° ESE
Cosmos 2074 Rocket 4.0 02:34:54 19° SSE 02:39:20 58° E 02:45:24 10° NNE
Cosmos 1315 Rocket 2.8 02:36:10 10° N 02:40:19 85° E 02:42:08 33° SSE
Cosmos 1980 4.2 02:42:42 10° SSW 02:48:14 60° WNW 02:53:49 10° NNE
Cosmos 44 3.1 02:44:31 10° SSW 02:48:48 75° WNW 02:53:11 10° NNE
ISS -3.9 02:46:45 10° SW 02:50:06 89° E 02:53:28 10° NE
Cosmos 1680 Rocket 3.6 02:44:50 10° SSW 02:50:08 80° WNW 02:55:29 10° NNE
DELTA 2 R/B (1) 4.2 02:47:26 10° WNW 02:52:53 53° N 02:57:11 16° ENE
Atlas Centaur 2 3.8 02:53:15 10° WSW 02:56:17 16° SSW 02:56:41 16° SSW
Cosmos 1892 2.5 02:56:31 62° SE 02:56:49 65° E 03:00:35 10° NNE
Cosmos 2181 Rocket 4.2 02:51:31 10° N 02:57:44 71° W 03:01:54 21° S
Geosat 3.9 02:55:58 39° SE 02:57:51 80° ENE 03:02:53 10° NNW
Cosmos 2237 Rocket 3.2 02:59:02 10° SW 03:04:29 46° WNW 03:09:58 10° N
Cosmos 158 Rocket 4.4 03:01:14 10° SSW 03:06:00 57° WNW 03:10:50 10° N
Meteor 2-17 Rocket 4.3 03:02:52 28° S 03:06:18 83° E 03:12:22 10° N
Gblst 52 Del rocket 4.3 03:01:18 10° NW 03:07:01 73° SW 03:09:13 41° SSE
ATLAS CENTAUR R/B 3.3 03:04:55 10° WNW 03:07:14 16° WSW 03:08:23 14° SW
Landsat 7 3.7 03:07:35 47° S 03:08:59 85° WSW 03:13:46 10° NNW
Resurs 01 Rocket 3.2 03:08:51 17° SSW 03:11:28 29° W 03:15:18 10° NW
NOSS 3-4 (A) 4.0 03:05:38 10° NNW 03:12:50 70° ENE 03:16:05 38° SE
NOSS 3-4 (C) 4.0 03:05:45 10° NNW 03:12:58 70° ENE 03:16:12 38° SE
OAO 3 Copernicus 4.2 03:10:53 10° W 03:15:58 89° SSW 03:17:09 54° E
Cosmos 1943 Rocket 4.2 03:13:48 10° NNE 03:16:56 15° NE 03:18:23 14° ENE
ERS-1 Rocket 3.0 03:16:29 53° ESE 03:17:17 61° ENE 03:22:15 10° N
Cosmos 1610 Rocket 4.4 03:20:17 38° S 03:22:58 85° E 03:29:23 10° N
Cosmos 1842 Rocket 4.2 03:19:08 10° NNW 03:23:18 49° W 03:24:16 41° SW
Cosmos 1825 3.3 03:25:59 34° NE 03:25:59 34° NE 03:28:23 10° NNE
Hubble Space Telescope 2.8 03:22:04 10° WSW 03:23:26 17° SW 03:23:26 17° SW
Cosmos 2344 3.8 03:18:19 10° SW 03:25:58 68° WNW 03:33:38 10° NNE
SPOT 1/Viking Rocket 3.6 03:26:27 50° SSW 03:27:42 70° WSW 03:32:52 10° NNW
Cosmos 1408 3.3 03:30:37 49° NNW 03:30:37 49° NNW 03:33:21 10° N
COSMOS 2455 4.3 03:26:56 10° N 03:31:48 25° NE 03:33:19 22° ENE
Cosmos 1624 Rocket 3.9 03:28:06 10° N 03:33:16 65° ENE 03:33:35 63° E
BREEZE-M DEB (TANK) 3.4 03:29:40 10° NW 03:34:49 35° NNE 03:34:52 35° NNE
Cosmos 2221 3.3 03:30:47 10° NNW 03:34:54 43° W 03:35:30 40° WSW
SEDSat Delta rocket 3.7 03:29:57 10° WSW 03:35:37 63° S 03:35:53 62° SSE
Cosmos 1869 4.4 03:33:28 10° NNW 03:37:14 37° W 03:37:35 36° WSW
CARTOSAT-1 3.6 03:38:11 76° WNW 03:38:11 76° WNW 03:42:18 10° NNW
ATLAS 2AS CENTAUR R/B 2.7 03:32:47 10° NNW 03:40:12 85° WSW 03:41:54 55° SSE
SPOT 5 2.7 03:41:55 85° SW 03:42:00 86° WSW 03:46:42 10° NNW
Cosmos 2151 3.5 03:43:44 52° NNE 03:43:44 52° NNE 03:47:02 10° N
USA 215 3.1 03:37:29 10° NE 03:44:01 68° SE 03:46:25 41° SSW
Cosmos 2278 Rocket 3.3 03:42:25 10° NW 03:47:30 35° WSW 03:48:54 30° SW
CZ-4C R/B 4.5 03:47:01 10° N 03:52:59 25° NE 03:56:51 18° E
SL-16 R/B 3.0 03:51:42 23° SW 03:55:00 50° WNW 04:00:31 10° N
GEOS 3 Rocket 4.2 03:50:12 10° NNE 03:55:30 59° NW 03:58:53 22° SW
Terra 1.9 03:56:54 73° NNW 03:56:54 73° NNW 04:01:14 10° NNW
Cosmos 2297 3.6 03:53:27 10° NNW 03:59:11 72° ENE 03:59:13 72° ENE
Cosmos 2366 rocket 4.2 04:03:47 53° E 04:03:47 53° E 04:09:41 10° NNE
Cosmos 1371 Rocket 4.4 03:58:38 10° NNW 04:03:48 54° WSW 04:03:51 54° WSW
Cosmos 2218 Rocket 4.0 04:09:50 64° E 04:09:50 64° E 04:15:52 10° NNE
Cosmos 1420 Rocket 4.2 04:04:46 10° NNW 04:09:30 66° NNE 04:09:30 66° NNE
Thor Agena Rocket 4.3 04:18:46 10° NNE 04:22:13 42° NE 04:22:13 42° NE
Cosmos 1048 Rocket 4.5 04:26:12 58° N 04:26:12 58° N 04:30:24 10° NNE
ISS -0.4 04:25:43 10° NW 04:27:17 13° NNW 04:28:51 10° N
Cosmos 1603 4.1 04:32:09 58° NNE 04:32:09 58° NNE 04:36:44 10° NNE
SL-8 Rocket 4.0 04:32:32 68° W 04:32:42 68° W 04:38:50 10° N
Cosmos 2369 Rocket 3.0 04:28:24 10° N 04:33:06 42° NE 04:33:06 42° NE
DELTA 2 R/B (1) 4.3 04:34:01 10° WNW 04:37:54 47° WNW 04:37:54 47° WNW
Lacrosse 5 rocket 3.6 04:36:34 10° NNW 04:38:15 21° N 04:38:15 21° N
Cosmos 1452 Rocket 4.4 04:47:53 10° NNW 04:51:41 46° NW 04:51:41 46° NW
Cosmos 1943 Rocket 2.8 04:55:36 10° NNW 04:59:53 51° NW 04:59:53 51° NW
Cosmos 1727 Rocket 4.1 04:56:32 10° N 05:02:04 71° N 05:02:04 71° N
Lacrosse 5 3.7 05:08:05 24° NE 05:08:05 24° NE 05:10:07 10° NE
COSMOS 2455 3.8 05:12:10 10° NW 05:16:26 40° WNW 05:16:26 40° WNW
Cosmos 1943 4.2 05:25:12 40° NW 05:25:12 40° NW 05:30:07 10° N
Cosmos 1607 4.4 05:32:17 55° NW 05:32:17 55° NW 05:38:00 10° NNE
CZ-4C R/B 3.0 05:34:34 10° NNW 05:42:00 78° W 05:42:00 78° W
USA 267 3.7 05:54:09 52° ENE 05:55:03 56° NE 06:01:25 10° NW
Meteor 1-27 Rocket 4.4 06:01:16 10° N 06:05:28 51° N 06:05:28 51° N
Cosmos 2123 Rocket 4.3 06:03:04 10° N 06:08:02 60° NNW 06:08:02 60° NNW
Cosmos 2369 Rocket 4.3 06:13:15 10° NW 06:14:52 16° WNW 06:14:52 16° WNW
Cosmos 1605 Rocket 4.3 06:25:58 62° NNW 06:25:58 62° NNW 06:31:16 10° N
Resurs 1-4 Rocket 3.7 06:32:08 10° NE 06:35:35 26° ENE 06:35:35 26° ENE
Lacrosse 5 4.1 06:47:13 16° NW 06:48:32 17° NNW 06:51:55 10° N
Cosmos 2173 Rocket 4.1 06:56:53 71° ENE 06:56:53 71° ENE 07:02:52 10° N
Cosmos 2016 Rocket 4.2 07:07:36 58° E 07:07:38 58° E 07:13:41 10° NNE
Meteor 1-14 Rocket 4.5 07:12:41 62° NNW 07:12:41 62° NNW 07:17:25 10° N
SL-16 R/B 3.0 07:12:18 49° ESE 07:13:27 56° ENE 07:19:32 10° N
Meteor 2-4 Rocket 4.5 07:08:17 10° N 07:13:58 47° ENE 07:14:40 45° E
Cosmos 1697 Rocket 4.4 07:18:17 10° N 07:23:06 28° ENE 07:27:06 13° ESE
SeaSat 1 2.9 07:20:05 10° NNE 07:24:07 56° ENE 07:24:07 56° ENE
Cosmos 2082 Rocket 2.8 07:28:05 48° ESE 07:28:05 48° ESE 07:33:31 10° NNE
CZ-4B R/B 4.1 07:24:36 10° NNE 07:28:58 49° ENE 07:28:58 49° ENE
IRS-1D 4.3 07:26:27 10° NNE 07:30:55 40° E 07:30:55 40° E
Cosmos 1833 Rocket 2.7 07:31:40 79° NNE 07:31:40 79° NNE 07:36:56 10° NNE
Cosmos 1140 Rocket 3.7 07:32:14 64° N 07:32:14 64° N 07:36:44 10° NNE
Aureole 1 Rocket 3.8 07:33:50 58° NNE 07:33:50 58° NNE 07:38:19 10° NNE
CZ-2D R/B 2.2 07:29:24 10° N 07:34:24 74° NNW 07:34:24 74° NNW
Cosmos 407 Rocket 4.0 07:36:02 50° NW 07:36:02 50° NW 07:40:40 10° N
COSMOS 2406 3.6 07:37:53 51° WNW 07:37:53 51° WNW 07:43:23 10° N
Cosmos 1656 3.6 07:36:22 10° NNW 07:41:49 78° ENE 07:41:57 77° E
CBERS-1 4.3 07:38:59 10° NNE 07:44:03 56° E 07:44:09 56° ESE
Cosmos 2233 Rocket 4.0 07:53:28 55° SSE 07:54:48 73° E 08:01:01 10° N
Cosmos 2346 Rocket 4.3 07:49:03 10° N 07:55:12 79° W 07:55:55 69° SSW
Cosmos 1733 Rocket 3.4 07:57:57 62° NE 07:57:57 62° NE 08:01:47 10° NNE
Cosmos 676 Rocket 4.0 07:57:50 71° WNW 07:57:50 71° WNW 08:03:04 10° NNE
ARIANE 5 R/B 3.6 07:58:16 10° NNE 08:03:00 37° E 08:04:30 31° SE
IRS-1C 4.5 08:01:33 10° NNE 08:06:49 58° E 08:08:02 46° SSE
Meteor 1-13 Rocket 4.1 08:01:20 10° N 08:07:04 87° E 08:08:17 57° SSE
ADEOS II 2.0 08:06:16 10° NNE 08:11:33 87° E 08:12:21 66° S
AQUA 4.3 08:07:34 10° N 08:11:55 45° WNW 08:11:55 45° WNW
ATLAS 2A CENTAUR R/B 4.0 08:15:30 30° SSE 08:15:30 30° SSE 08:18:15 10° ESE
NPP 4.3 08:09:31 10° N 08:14:29 39° WNW 08:14:49 38° W
Resurs 1-4 Rocket 3.2 08:11:49 10° N 08:16:24 30° WNW 08:16:39 30° WNW
Centaur AC-72 4.3 08:18:11 22° SSE 08:18:11 22° SSE 08:21:31 10° SE
Cosmos 1356 4.3 08:19:03 48° NNE 08:19:03 48° NNE 08:21:39 10° N
Cosmos 1725 Rocket 4.4 08:19:52 40° W 08:20:41 42° W 08:26:33 10° N
USA 238 DEB 4.4 08:20:44 28° SSE 08:23:35 43° ESE 08:29:54 10° NE
USA 238 4.4 08:20:49 28° SSE 08:23:41 43° ESE 08:29:58 10° NE
Cosmos 1536 3.6 08:25:47 42° NW 08:25:47 42° NW 08:29:03 10° N
Okean 3 4.4 08:21:52 10° NNW 08:24:46 34° NW 08:24:46 34° NW
ATLAS 5 CENTAUR R/B 3.7 08:26:31 10° NNW 08:32:09 42° NE 08:38:31 10° SE
CENTAUR R/B 4.0 08:29:59 14° SSE 08:33:21 24° ESE 08:38:15 10° NE
Cosmos 1975 4.4 08:33:08 20° SE 08:35:03 30° E 08:38:34 10° NNE
H-2A R/B 4.4 08:31:50 10° ESE 08:35:21 24° ENE 08:38:49 10° NNE
SL-27 R/B 4.0 08:35:04 25° SE 08:35:52 28° E 08:38:53 10° NE
Cosmos 2369 3.6 08:33:24 10° NNW 08:39:07 69° WSW 08:42:09 28° S
Cosmos 1980 Rocket 2.5 08:33:34 10° NNW 08:39:15 67° ENE 08:44:52 10° SSE
CZ-2C R/B 4.2 08:38:06 10° NNE 08:41:49 34° E 08:43:53 21° SSE
Tsikada Rocket 4.4 08:36:23 10° NNW 08:42:25 45° W 08:44:16 36° SW
Cosmos 921 Rocket 2.9 08:38:55 10° NNW 08:43:16 69° WSW 08:44:02 55° SSW
IRS-P3 4.3 08:40:15 10° N 08:45:26 54° WNW 08:47:05 39° SW
IDEFIX/ARIANE 42P 2.9 08:41:33 10° NNE 08:46:41 59° E 08:49:47 23° S
Meteor 2-11 Rocket 4.4 08:44:47 36° SSW 08:47:15 66° W 08:53:18 10° N
ERS-2 4.2 08:46:44 10° SE 08:49:49 27° ENE 08:52:54 10° NNE
Meteor 1-28 Rocket 3.1 08:51:07 40° SSE 08:52:23 86° ENE 08:56:07 10° N
Cosmos 1867 3.9 08:50:00 29° S 08:52:38 60° ESE 08:58:00 10° NE
Cosmos 1378 Rocket 3.4 08:50:01 10° N 08:54:26 80° W 08:56:31 31° S
SL-16 R/B 3.9 08:57:24 20° W 08:57:24 20° W 09:01:41 10° NW
Cosmos 2278 3.6 08:53:45 10° NNW 08:59:26 70° WSW 09:05:05 10° S
ERBS 2.7 08:59:02 44° SSE 08:59:34 50° SE 09:02:46 10° NE
CZ-2C R/B 4.4 08:58:10 10° NE 09:01:52 23° E 09:05:29 10° SSE
SL-16 R/B 4.3 08:57:02 10° N 09:01:55 29° ENE 09:06:45 10° ESE
SeaSat 1 4.5 08:59:16 10° NNW 09:01:58 15° NW 09:03:54 12° WNW
MSX 4.3 08:57:03 10° NNE 09:02:42 59° ESE 09:07:45 13° S
Cosmos 1464 Rocket 4.0 08:58:17 21° S 09:02:44 86° W 09:09:09 10° N
COBE Rocket 4.5 09:01:51 33° SW 09:03:06 38° W 09:07:42 10° NNW
Okean 2 4.2 09:01:54 10° N 09:05:52 50° E 09:09:50 10° SSE
OAO 1 4.5 09:03:07 27° WSW 09:06:14 83° S 09:11:46 10° E
Cosmos 1697 Rocket 3.3 09:02:01 10° NW 09:07:01 34° WSW 09:08:42 28° SW
SL-19 R/B 3.8 09:04:00 10° NNE 09:07:02 75° ESE 09:08:15 36° S
Cosmos 1271 Rocket 3.3 09:06:32 10° N 09:10:13 54° E 09:13:52 10° SSE
Cosmos 1263 4.1 09:08:04 10° NNW 09:11:02 64° W 09:12:02 39° SSW
ATLAS 2A CENTAUR R/B 3.2 09:11:09 10° SSE 09:11:22 10° SE 09:11:36 10° SE
Cosmos 2082 Rocket 3.8 09:09:56 17° W 09:12:21 22° WNW 09:16:40 10° N
Cosmos 1763 Rocket 3.5 09:08:21 10° NNW 09:13:39 89° WSW 09:18:58 10° SSE
Cosmos 2034 Rocket 4.0 09:08:09 13° S 09:13:42 82° E 09:19:52 10° N
CZ-2D R/B 3.8 09:09:36 10° N 09:13:49 53° WNW 09:15:42 29° SW
Cosmos 1544 3.2 09:17:21 33° SW 09:18:38 53° W 09:22:08 10° N
Abrixas rocket 4.2 09:16:54 10° NNW 09:19:24 26° NNE 09:21:53 10° E
Cosmos 1674 Rocket 4.5 09:15:45 10° NNW 09:19:28 28° W 09:20:31 25° WSW
ISS -1.2 09:18:50 10° NNW 09:21:38 24° NE 09:24:26 10° E
ATLAS 3B R/B 4.4 09:16:54 10° SSE 09:22:05 25° ESE 09:27:15 10° ENE
NOSS 3-2 (C) 3.4 09:18:36 19° SSW 09:22:39 72° ESE 09:28:45 10° NE
Cosmos 1743 4.0 09:22:55 22° W 09:23:40 23° WNW 09:26:47 10° NNW
Cosmos 1782 Rocket 3.6 09:21:46 22° SSW 09:24:33 61° W 09:28:57 10° N
Cosmos 468 Rocket 4.1 09:20:06 10° NNW 09:25:19 58° WSW 09:30:31 10° S
ATLAS 2A CENTAUR R/B 3.8 09:14:49 10° W 09:25:27 37° SSW 09:28:51 10° SE
Cosmos 1570 Rocket 4.4 09:23:24 10° NNW 09:28:39 68° ENE 09:33:54 10° SSE
NOSS 3-2 (A) 3.6 09:31:00 19° SW 09:34:55 54° NW 09:41:00 10° NNE
COSMOS 2441 4.3 09:31:37 10° N 09:36:25 74° WNW 09:40:56 11° SSW
Landsat 5 3.2 09:32:27 10° S 09:36:25 77° W 09:40:16 10° NNW
SL-08 R/B 4.5 09:37:11 18° SW 09:39:15 24° W 09:43:06 10° NW
COSMOS 2487 4.2 09:36:53 10° SSE 09:39:55 29° ESE 09:42:57 10° NE
Cosmos 540 Rocket 3.6 09:35:29 10° NNW 09:40:39 78° ENE 09:45:47 10° SSE
Cosmos 1242 Rocket 3.7 09:38:11 10° NW 09:40:58 23° W 09:42:14 19° SW
Meteor 2-9 Rocket 4.2 09:36:47 13° SSW 09:41:20 56° W 09:46:35 10° N
Cosmos 841 Rocket 3.5 09:36:19 10° NNW 09:41:31 84° ENE 09:46:42 10° SSE
ARIANE 5 R/B 3.9 09:37:58 10° NNW 09:41:49 22° WNW 09:44:50 14° WSW
Cosmos 2322 Rocket 3.2 09:37:36 10° N 09:43:08 52° ENE 09:48:38 10° SE
Sich 1 Rocket 3.9 09:45:04 11° SSW 09:49:19 52° W 09:53:44 10° N
Cosmos 1818 3.6 09:47:28 10° NW 09:52:50 60° WSW 09:58:08 10° SSE
CZ-4B R/B 2.4 09:54:17 10° SSE 09:57:40 53° ENE 10:01:04 10° N
Intercosmos 25 Rocket 4.4 09:54:42 10° NNW 09:59:11 59° W 10:06:30 10° S
deb Chang Zheng 4 3.5 09:55:09 10° N 09:59:26 79° WNW 10:03:43 10° SSW
Cosmos 1833 4.4 09:55:40 10° SSW 10:01:16 78° ESE 10:06:54 10° NNE
Cosmos 1092 Rocket 4.1 09:56:09 10° N 10:02:30 88° E 10:08:47 10° S
Cosmos 1484 Rocket 4.3 10:01:32 10° NNE 10:05:06 35° E 10:08:34 10° SSE
Cosmos 1975 Rocket 3.9 10:07:05 10° NNW 10:11:02 32° W 10:15:00 10° SSW
H-2A R/B 3.2 10:07:31 10° SSW 10:11:10 25° W 10:14:46 10° NW
CZ-4C R/B 4.4 10:10:02 10° SW 10:12:15 17° W 10:14:26 10° NW
Cosmos 2360 Rocket 3.4 10:09:37 10° N 10:15:09 50° ENE 10:20:37 10° SE
Nadezhda 4 Rocket 4.5 10:09:50 10° NNW 10:15:44 42° W 10:21:37 10° SSW
PSLV R/B 4.3 10:12:03 10° N 10:16:03 37° WNW 10:20:03 10° SW
Cosmos 1486 Rocket 4.1 10:11:06 10° SSW 10:16:21 69° WNW 10:21:37 10° NNE
ATLAS 5 CENTAUR R/B 3.2 10:11:19 10° NW 10:16:50 33° WSW 10:22:54 10° S
CZ-3B R/B 3.3 10:15:46 10° WSW 10:24:11 32° SSW 10:27:33 10° SE
